Theta_e
329 326 316 310 298 295 291 294 293 294 293 295 298 299 298 297 300 295 310 319 319 319 325 324 326 324 325 325 326 327 327 329 329 328 328 329 327 327 326 327 328 328 328 327 327 328 330 333 336
320 318 311 304 291 288 290 291 292 293 296 297 298 298 297 296 304 306 311 318 319 320 322 320 324 323 324 326 326 327 326 326 326 326 325 326 325 326 325 325 326 326 327 326 325 325 328 330 332
319 317 304 297 289 286 290 292 293 294 294 295 294 296 297 298 304 306 312 317 317 318 319 321 324 324 324 324 325 325 325 324 324 325 324 324 324 324 324 323 323 323 324 324 323 323 325 327 329
312 305 301 291 289 293 293 292 295 294 295 297 294 292 295 299 304 309 316 316 316 317 319 323 324 323 323 323 324 324 324 323 323 323 322 322 322 322 322 321 321 321 321 323 323 321 322 323 326
307 300 292 289 290 292 292 297 296 294 293 293 295 291 292 300 310 312 315 316 315 315 319 319 323 323 323 324 324 322 322 322 322 320 319 320 320 320 320 320 319 319 319 320 321 320 320 320 323
300 298 289 286 290 293 291 294 295 293 292 293 295 294 292 301 309 311 314 315 317 313 315 318 322 322 322 322 321 321 319 319 318 316 315 316 316 317 317 317 317 317 317 317 318 319 319 318 320
298 292 287 289 290 292 294 295 292 293 289 290 296 292 292 299 309 312 314 315 314 314 313 315 316 318 321 320 320 317 315 314 313 312 311 311 312 313 313 314 315 315 315 315 315 318 319 318 320
301 295 289 289 289 290 294 294 294 294 289 293 294 291 290 299 310 311 313 313 312 312 311 310 310 310 309 311 316 313 311 310 310 309 309 307 307 308 309 309 311 313 314 315 315 315 318 319 320
301 291 288 290 292 291 294 293 294 294 294 293 293 294 298 306 310 307 308 308 309 310 310 309 308 307 307 307 310 309 310 309 308 306 306 302 296 297 299 307 309 311 313 315 316 316 313 311 313
295 290 291 295 294 293 295 295 293 292 291 292 295 300 307 309 307 305 304 304 305 305 307 307 306 306 306 308 302 300 302 298 298 298 296 297 295 299 301 303 307 308 311 314 314 312 309 304 298
295 291 296 297 297 295 295 293 294 292 289 292 292 298 303 304 304 304 304 305 304 305 305 304 305 304 303 301 298 297 296 296 296 296 297 296 296 294 294 293 293 294 301 297 301 299 298 297 296
291 295 296 296 294 294 292 293 291 291 291 294 298 300 302 303 303 304 304 304 304 304 303 303 302 301 300 299 298 296 296 295 295 296 297 295 294 293 292 292 293 293 294 296 297 296 295 295 295
291 294 295 294 293 293 295 292 292 291 293 296 300 301 301 302 303 304 305 305 304 303 303 301 300 299 299 298 296 296 296 295 295 295 296 296 294 293 293 292 292 292 294 295 296 295 295 294 295
294 294 293 293 295 294 293 293 293 293 294 295 298 298 300 301 303 303 303 304 304 304 302 300 299 299 299 297 296 296 296 296 295 295 295 296 294 293 293 292 292 293 293 294 295 294 294 294 294
294 291 291 292 294 294 293 290 292 292 296 294 294 295 298 301 303 303 303 304 304 304 302 299 298 299 298 298 297 296 297 297 295 294 295 296 295 293 293 292 292 292 293 294 295 295 296 295 295
290 290 288 292 294 294 292 285 293 293 294 294 294 294 295 297 302 302 302 304 304 303 301 300 301 298 298 297 297 297 297 296 295 294 294 296 296 294 293 293 292 293 293 293 293 294 293 294 293
288 284 287 290 294 293 290 286 291 293 293 293 292 292 293 293 297 301 302 303 303 303 301 298 297 297 298 297 297 296 296 296 295 294 294 295 296 295 293 292 293 293 293 293 293 291 291 290 292
284 284 285 286 290 289 287 288 291 293 293 292 290 290 292 292 294 300 301 302 302 302 300 297 297 296 297 297 296 295 296 295 295 294 294 296 296 295 293 292 292 293 292 291 292 290 290 290 291
287 284 283 286 290 287 287 287 289 292 291 290 290 289 291 292 294 298 301 301 299 299 298 295 295 295 296 295 294 294 293 294 293 294 295 295 296 295 293 292 292 292 291 290 292 291 289 289 290
287 284 283 287 289 286 286 286 289 291 291 292 291 289 291 291 291 295 297 298 298 297 297 294 296 295 296 296 295 295 294 294 294 294 294 295 295 295 293 292 292 291 290 290 290 290 290 288 288
285 283 284 284 287 287 285 284 287 289 290 291 289 291 292 291 290 292 295 295 294 295 295 295 295 296 297 297 297 296 295 294 293 292 292 294 294 294 293 292 291 290 289 288 288 288 289 287 288
281 287 287 286 280 275 285 275 282 286 286 287 287 290 289 289 290 292 292 292 293 293 294 295 296 296 297 297 296 296 293 292 293 292 292 293 294 293 293 292 291 290 289 289 289 289 288 287 286
284 288 286 285 279 276 279 274 281 285 285 285 286 288 289 289 291 290 291 293 293 293 293 294 295 296 296 297 296 294 293 293 293 292 291 291 292 292 293 292 290 289 289 288 288 287 287 287 285
289 286 285 283 279 269 273 275 278 283 283 285 286 288 290 290 290 291 291 293 292 292 292 293 295 295 296 296 295 294 293 293 292 290 290 290 290 291 291 292 290 289 289 288 288 287 287 286 286
287 280 272 272 270 271 279 277 281 282 283 284 286 286 287 289 289 290 291 291 292 292 292 293 295 294 295 295 295 295 294 293 292 291 290 289 289 289 289 290 289 288 288 289 288 287 286 286 285
281 279 272 268 273 276 279 274 279 281 283 286 287 286 287 288 290 290 291 291 292 293 293 294 294 294 295 295 295 295 294 294 294 293 291 290 289 289 289 289 289 289 289 288 288 286 286 286 285
282 278 282 273 272 270 275 277 281 282 282 284 286 287 286 287 288 290 291 292 292 293 293 293 294 294 294 294 294 293 293 293 293 292 291 290 290 290 289 289 289 289 289 288 288 287 286 285 285
283 283 277 275 267 270 275 274 276 281 281 282 283 284 285 287 288 290 291 292 293 294 294 294 294 294 294 294 292 292 292 292 292 291 290 290 290 290 289 289 289 288 289 288 288 286 286 285 285
280 277 280 280 278 270 268 273 281 281 283 283 283 284 284 285 286 287 289 291 292 293 293 293 293 293 292 292 292 292 292 292 292 291 290 290 290 290 289 289 288 288 287 287 286 286 286 285 284
279 279 278 275 271 271 269 273 282 279 277 276 280 285 286 287 287 287 288 289 290 290 291 290 291 291 291 292 291 290 291 290 289 288 288 288 288 289 288 288 287 287 287 286 285 285 285 284 283
Wind_Speed
7 7 0 4 5 5 3 3 2 4 5 1 3 10 10 4 4 4 3 14 13 10 10 11 12 11 12 11 10 12 11 13 15 15 16 15 14 15 15 17 17 17 17 17 16 15 15 16 15
4 2 4 2 5 2 5 3 8 3 6 7 11 6 7 4 3 5 8 12 13 12 8 9 11 12 12 12 11 11 12 13 14 14 15 15 15 15 16 16 17 17 17 17 17 16 15 15 14
5 1 4 4 3 3 4 2 7 3 4 3 5 8 4 3 3 6 10 13 12 11 10 10 11 13 11 12 11 12 14 12 13 15 16 15 15 15 16 16 16 17 16 17 17 16 16 16 15
1 5 5 4 3 5 7 6 8 5 4 7 6 9 5 2 8 7 12 14 12 10 9 12 12 13 11 12 12 13 13 13 13 15 15 15 15 15 16 16 16 16 16 16 17 17 16 16 16
3 3 3 1 4 3 2 7 6 5 5 3 4 5 4 3 7 12 14 14 14 9 9 8 12 13 12 11 13 12 13 14 14 15 14 14 15 15 16 16 16 16 17 17 17 17 17 16 17
4 3 3 3 4 4 1 3 3 4 4 5 7 6 2 1 7 8 12 14 13 11 9 9 10 13 12 12 12 14 12 13 14 14 14 14 15 16 16 16 17 17 17 17 17 18 18 17 18
4 4 4 3 3 2 0 2 4 3 3 3 8 6 3 3 7 7 16 14 12 11 9 8 7 10 13 12 14 13 13 13 12 13 13 15 15 16 16 16 17 17 16 16 16 18 19 18 18
4 4 3 4 3 3 1 3 2 6 0 1 3 7 6 7 9 7 15 14 11 10 9 8 7 7 7 6 13 12 12 12 12 11 13 13 14 15 16 14 16 16 16 17 16 17 18 19 19
3 5 2 3 3 3 1 3 3 1 6 5 5 2 6 12 9 7 13 10 9 8 10 9 8 8 7 6 7 10 11 9 9 10 11 8 4 5 7 14 16 16 16 18 17 19 19 18 20
4 3 3 1 2 2 2 5 3 3 4 4 5 7 13 12 7 9 9 9 8 9 8 8 8 9 7 6 5 4 3 4 4 5 5 3 4 4 7 11 16 17 17 18 20 20 20 14 7
2 4 1 1 2 3 2 2 2 4 4 7 10 13 11 7 7 8 7 8 8 9 6 8 10 7 7 5 4 2 3 3 3 5 5 5 5 4 4 4 4 4 10 4 8 7 6 8 6
0 2 2 3 1 1 2 2 2 4 3 3 16 16 11 11 9 9 9 8 9 7 8 8 8 7 7 4 4 4 4 3 3 4 6 5 3 5 5 4 4 5 4 5 5 4 6 8 8
2 3 3 3 2 0 1 3 4 4 6 10 13 13 12 10 8 7 8 8 8 8 7 8 8 7 6 6 4 4 4 4 4 5 5 4 5 5 4 4 4 4 4 4 5 5 5 6 7
1 3 4 4 3 3 2 1 2 4 8 12 13 11 11 12 11 7 9 10 10 9 8 8 8 7 7 5 6 5 4 5 4 4 4 6 5 5 5 5 4 4 4 4 5 5 5 5 5
3 1 2 5 4 2 2 5 8 4 9 11 11 11 12 13 11 12 10 12 13 10 9 8 9 8 7 7 6 5 4 5 4 4 6 6 6 6 5 4 4 4 4 6 5 5 5 5 5
1 0 1 2 5 2 3 8 2 9 10 10 9 9 11 12 16 9 9 12 12 12 12 8 8 8 7 7 5 4 5 4 4 4 4 6 6 6 5 4 4 4 4 4 4 4 5 5 5
2 3 5 2 6 2 4 6 1 8 9 9 9 9 9 9 9 11 10 12 12 13 12 9 9 8 8 7 5 6 6 5 4 4 4 6 6 6 5 4 4 5 4 5 4 5 4 4 4
4 4 3 4 3 2 3 11 5 9 9 11 9 9 9 9 10 12 12 11 11 12 11 9 7 8 7 6 5 4 4 4 4 4 4 6 5 6 6 5 5 5 5 4 4 5 5 3 3
2 2 3 2 2 2 7 9 10 10 8 9 9 9 9 10 8 8 11 11 10 11 12 11 10 8 6 4 4 4 4 3 3 4 6 6 5 6 6 4 5 5 5 4 3 3 6 5 2
0 1 4 2 2 2 4 12 12 8 10 13 11 9 10 8 8 8 9 10 12 11 12 10 10 8 6 5 3 4 4 3 3 4 5 5 6 6 5 6 5 5 4 6 6 4 2 4 4
2 2 2 3 3 2 5 10 7 3 2 7 3 6 7 13 11 8 10 9 9 12 12 11 9 9 7 7 5 4 4 4 3 3 3 3 6 6 6 6 5 5 4 5 4 4 5 3 4
2 1 0 2 6 3 3 7 7 3 3 5 6 7 8 9 7 8 8 8 9 8 8 9 9 10 8 8 7 9 5 5 4 4 4 4 6 6 6 6 6 6 4 5 4 4 4 4 3
4 0 2 3 4 5 2 6 11 1 1 3 6 7 7 7 10 9 9 10 7 9 8 8 8 8 7 7 7 6 6 3 4 4 7 6 5 6 6 6 6 6 4 5 6 6 6 4 3
3 3 6 6 4 3 6 6 8 3 4 6 5 6 6 6 7 7 7 8 7 7 8 8 10 8 8 8 8 9 9 6 6 5 5 4 3 4 5 6 6 6 5 5 5 5 6 5 5
4 6 4 6 4 7 4 4 8 4 6 3 8 7 7 7 6 6 8 7 7 8 8 8 10 7 8 8 8 8 8 9 10 9 5 6 4 3 4 5 5 4 5 5 5 6 6 4 4
3 6 7 7 3 3 4 6 5 1 4 7 7 7 8 8 5 6 7 7 7 7 7 7 8 7 7 7 7 7 8 8 8 8 7 5 4 5 5 6 6 6 6 5 5 4 4 5 5
2 2 3 5 2 4 4 1 1 3 5 6 7 7 6 6 4 6 7 7 7 7 7 8 8 7 7 7 6 7 7 9 8 8 7 5 6 5 7 6 6 6 6 6 5 4 4 5 4
3 2 3 4 0 4 6 3 5 2 3 3 5 6 5 5 6 3 4 7 6 7 6 7 7 8 7 7 6 6 7 8 8 9 10 11 8 7 7 7 6 6 6 6 5 4 3 5 3
1 2 2 2 5 6 2 6 4 2 3 6 4 4 3 3 2 1 2 4 6 5 6 7 7 7 6 6 6 8 7 9 9 10 9 8 7 9 8 7 7 6 6 6 6 5 4 5 4
2 3 3 5 6 1 4 7 1 3 2 2 2 5 5 3 2 4 2 3 5 5 6 6 6 7 6 6 7 8 8 9 9 7 7 7 7 6 7 6 5 6 5 5 6 5 5 5 4
Wind_Direction
301 280 4 41 52 64 282 308 28 59 56 22 353 86 110 44 51 149 89 122 123 124 120 117 111 118 101 100 81 74 77 63 63 62 64 57 59 56 56 54 52 52 54 54 55 52 50 45 44
310 286 40 72 83 54 294 355 71 33 140 116 86 119 51 76 70 136 94 129 126 118 116 105 126 120 111 96 87 81 80 69 65 67 61 57 58 56 56 54 53 51 52 54 56 57 54 52 49
293 174 88 106 126 189 148 237 132 105 83 104 97 55 86 82 121 155 123 126 117 116 134 120 127 116 111 106 93 85 75 81 71 68 61 57 56 56 57 57 55 55 52 54 56 58 57 53 48
343 12 15 89 217 303 133 185 137 123 26 56 121 72 61 255 166 153 131 113 103 106 114 129 132 120 115 105 95 86 83 74 72 63 61 61 60 60 59 58 57 57 57 55 56 58 58 57 54
30 66 58 286 258 148 152 148 138 137 130 81 107 152 82 355 134 124 134 123 118 114 122 128 136 121 117 109 95 91 77 75 70 69 65 63 62 60 60 59 58 59 60 60 58 59 60 62 64
20 89 66 233 259 160 353 54 91 119 134 123 83 98 140 164 121 154 122 127 127 128 124 137 130 121 113 107 106 88 84 80 77 73 69 65 65 64 62 62 60 60 62 65 63 62 63 64 66
119 92 218 220 211 94 136 8 67 112 93 89 146 86 181 167 187 152 124 126 130 127 127 129 131 122 112 111 95 94 89 85 82 79 74 69 64 65 61 60 61 62 64 68 70 66 66 69 70
107 102 307 261 215 172 293 65 83 80 81 34 70 152 179 208 182 126 130 128 132 129 119 116 103 94 77 83 105 101 96 91 88 79 75 72 69 67 67 55 61 64 65 68 69 73 68 70 67
53 58 273 315 358 161 225 96 9 119 97 53 356 121 166 150 145 113 122 129 135 129 134 136 126 112 106 101 111 108 106 101 81 73 86 78 78 68 40 60 60 61 63 69 72 73 71 64 61
93 107 238 315 354 129 108 89 145 108 126 68 47 44 118 137 138 140 139 132 132 140 150 141 126 131 128 130 128 123 89 88 84 80 83 72 59 71 59 53 57 66 67 69 73 73 67 56 50
216 182 149 356 10 350 101 82 106 137 224 176 171 154 145 144 144 146 144 143 143 143 134 130 135 140 134 137 146 130 102 89 64 59 75 63 62 57 55 52 44 44 53 40 53 52 51 51 53
93 109 74 170 324 330 85 297 223 183 178 174 154 157 152 160 166 162 155 154 145 142 139 139 137 125 138 133 131 130 110 93 70 55 75 75 60 56 56 58 53 57 55 63 56 52 56 57 57
170 164 105 148 163 99 108 233 228 169 150 123 133 152 164 166 167 167 158 156 147 141 141 144 132 131 144 121 129 109 109 100 97 72 74 84 77 71 68 56 53 55 61 69 74 71 65 59 57
150 159 173 192 200 190 233 312 230 200 154 129 146 167 172 174 177 163 166 167 156 146 141 142 131 140 128 132 127 122 107 112 89 78 77 79 87 84 73 59 53 55 62 68 84 86 79 68 64
110 226 258 206 200 231 141 274 233 166 153 153 166 177 180 185 180 186 175 167 158 154 141 143 137 139 132 129 125 125 123 107 100 94 80 81 83 83 87 71 58 55 60 78 79 74 70 70 62
191 205 297 233 153 187 133 267 269 171 153 178 189 184 181 190 186 180 167 158 154 149 147 147 139 143 140 131 131 120 123 115 111 95 82 76 85 89 79 72 57 57 65 73 71 78 70 74 74
302 238 208 264 193 134 176 270 248 175 173 201 202 189 177 180 178 178 162 156 153 153 149 145 141 150 149 135 132 126 130 118 116 101 89 81 86 88 83 73 60 65 64 59 72 60 88 81 82
218 232 290 215 221 195 210 259 250 224 191 210 196 189 176 176 184 171 158 152 146 149 149 144 147 149 151 130 122 104 112 107 112 108 99 88 89 89 83 72 65 64 68 61 61 77 51 81 92
173 200 257 206 219 198 234 268 256 235 216 212 218 188 185 183 169 152 152 147 138 145 148 152 150 160 145 132 133 120 135 121 100 106 109 93 92 89 88 81 76 66 71 74 83 85 69 36 24
157 258 278 70 171 199 324 282 263 225 215 196 197 185 175 150 147 148 147 148 154 153 154 153 157 154 155 139 138 131 137 122 128 120 104 99 92 97 93 91 84 77 77 61 57 59 96 67 24
18 194 285 213 330 345 354 301 326 340 117 122 128 163 151 160 157 150 155 157 147 157 161 161 158 158 156 151 130 103 83 85 93 103 105 105 102 99 102 96 95 86 79 76 63 59 81 111 22
249 318 124 79 70 216 79 274 299 308 115 112 113 124 143 142 133 147 150 153 159 164 156 155 157 159 163 161 149 160 149 156 164 144 138 126 116 107 104 99 95 92 87 77 72 60 71 101 88
206 86 92 104 92 55 285 87 270 149 162 210 205 151 139 159 153 159 163 161 162 151 160 156 153 159 159 162 153 151 139 138 128 123 129 128 123 120 116 110 108 100 92 85 80 66 63 58 87
162 83 34 47 86 34 251 130 283 6 327 323 90 79 96 113 154 149 151 144 148 155 152 155 159 168 159 157 155 157 156 152 138 139 137 141 130 124 122 117 114 111 104 97 90 82 76 77 76
66 65 343 351 6 220 262 78 240 24 345 335 100 80 60 66 93 129 142 147 146 162 158 157 161 162 162 163 164 171 170 162 157 157 153 151 142 138 144 124 118 112 112 105 101 93 84 76 82
171 141 156 205 213 257 352 234 262 125 73 63 70 75 55 41 87 113 118 129 140 147 150 152 156 153 164 167 181 175 160 160 157 159 153 147 149 147 146 126 122 118 111 104 103 101 102 96 86
228 173 160 101 44 56 237 103 42 49 52 70 80 68 52 42 56 136 130 142 147 154 163 160 155 159 167 170 164 160 152 148 154 146 140 145 139 138 132 127 124 122 114 109 106 106 102 98 98
133 244 68 357 225 263 282 229 199 108 64 33 84 75 59 27 32 91 156 162 168 169 165 158 159 161 160 155 148 147 143 136 137 138 142 147 146 130 134 134 134 130 125 119 111 106 102 98 84
30 340 19 115 154 181 240 262 229 158 131 108 102 130 119 85 39 7 159 181 173 158 149 149 140 133 138 134 128 126 123 125 127 132 130 131 137 137 134 137 136 131 126 123 115 121 121 106 95
274 178 142 131 268 224 144 268 99 156 192 184 314 337 355 20 343 346 344 141 132 139 128 126 124 122 118 115 114 108 109 112 111 103 107 110 122 121 119 118 120 122 119 118 119 110 108 108 101